Regional Weather Roundup
Issued by NWS

Home | Current Version | Previous Version | Graphics & Text | Print | Product List | Glossary On
Versions: 1 2 3 4 5 6 7 8 9 10 11 12 13 14 15 16 17 18 19 20 21 22 23 24 25 26 27 28 29 30 31 32 33 34 35 36 37 38 39 40 41 42 43 44 45 46 47 48 49 50
000
ASUS45 KCYS 270210
RWRWY

WYOMING REGIONAL WEATHER ROUNDUP
NATIONAL WEATHER SERVICE CHEYENNE WY
700 PM MST MON JAN 26 2015

NOTE:  "FAIR" INDICATES FEW OR NO CLOUDS BELOW 12,000 FEET
WITH NO SIGNIFICANT WEATHER AND/OR OBSTRUCTIONS TO VISIBILITY.

WYZ001-270300-
YELLOWSTONE NATIONAL PARK

CITY           SKY/WX    TMP DP  RH WIND       PRES   REMARKS
LK YELLOWSTONE   N/A     23  20  88 CALM      30.34S
W YELLOWSTONE  NOT AVBL

$$
WYZ002>013-054>058-071-098>099-270300-
NORTHERN WYOMING

CITY           SKY/WX    TMP DP  RH WIND       PRES   REMARKS
JACKSON        CLEAR     19  19 100 CALM      30.33S
CODY           FAIR      36  28  75 S7        30.13S WCI  30
GREYBULL       FAIR      27  24  89 NW6       30.14S WCI  20
WORLAND        FAIR      29  24  82 SW8       30.14S WCI  21
SHERIDAN       FAIR      46  28  49 S7        30.02F
BUFFALO          N/A     51  25  36 W9        30.09S
GILLETTE       FAIR      51  29  42 SW20      30.04F
HULETT           N/A    N/A N/A N/A MISG        N/A
NEWCASTLE      FAIR      41  30  65 N6        30.08S

$$
WYZ014>020-022>026-101>103-270300-
CENTRAL WYOMING

CITY           SKY/WX    TMP DP  RH WIND       PRES   REMARKS
BIG PINEY      FAIR      27  22  81 N5        30.33R WCI  22
PINEDALE       FAIR      25  21  86 W9        30.32F WCI  15
DUBOIS         FAIR      41  23  48 W10       30.25S
LANDER         FAIR      35  28  75 W9        30.20S WCI  28
RIVERTON       FAIR      33  26  75 W3        30.21S
CASPER         FAIR      46  28  49 SW16      30.19R
DOUGLAS        FAIR      42  27  55 NW8       30.15S

$$
WYZ021-027>030-104>119-270300-
SOUTHERN WYOMING

CITY           SKY/WX    TMP DP  RH WIND       PRES   REMARKS
EVANSTON       FAIR      42  29  59 E3        30.29R
KEMMERER       FAIR      37  28  70 N5        30.31S WCI  34
FORT BRIDGER   FAIR      45  33  63 NE3       30.32S
ROCK SPRINGS   FAIR      43  26  51 SE13      30.28F
DIXON          FAIR      32  27  81 NE5       30.36S WCI  27
RAWLINS        FAIR      35  26  69 W5        30.32R WCI  31
SARATOGA       FAIR      34  28  80 CALM      30.33S
LARAMIE        FAIR      36  26  67 N7        30.30R WCI  30
CHEYENNE       FAIR      46  21  37 W13       30.22S
TORRINGTON     FAIR      50  27  40 W10       30.11F
PINE BLUFFS    FAIR      41  28  60 W10       30.19S

$$



USA.gov is the U.S. government's official web portal to all federal, state and local government web resources and services.